Wind_Speed
37 38 39 40 41 42 41 40 37 36 35 35 36 34 31 30 27 25 23 21 21 21 24 25 27 27 28 28 28 27 26 25 25 26 25 22 23 22 21 21 21 20 19
32 33 34 35 37 37 37 37 35 33 33 33 34 33 30 28 25 23 20 19 20 19 20 21 23 25 25 24 24 24 23 21 20 20 20 20 22 22 21 20 18 19 20
34 35 35 35 35 36 36 35 34 32 32 32 32 31 30 29 26 23 21 19 19 19 18 17 18 18 17 16 17 18 18 18 20 22 22 21 22 22 20 18 19 21 21
32 32 32 32 33 34 34 32 32 32 33 33 33 32 31 31 29 28 27 24 22 21 19 18 18 19 18 17 17 18 19 21 22 23 24 23 23 22 21 20 20 21 22
30 29 29 31 32 33 33 31 31 32 33 33 33 33 32 31 31 32 31 29 28 26 25 24 23 22 22 22 21 22 23 23 24 24 24 23 23 23 22 22 22 22 23
28 29 29 30 31 32 32 31 30 31 31 31 32 31 30 30 30 30 31 30 30 29 29 28 28 28 28 28 28 27 27 27 27 26 26 26 26 26 25 25 25 24 24
27 28 29 30 30 30 30 29 29 30 31 32 32 32 31 29 28 28 28 28 28 27 27 27 28 29 30 31 31 32 32 32 30 29 29 30 30 29 29 28 28 27 27
26 27 29 30 31 31 31 30 31 32 32 32 32 32 31 29 28 28 27 27 27 27 27 27 27 27 28 29 30 31 33 33 33 33 34 34 34 33 33 33 33 32 30
24 25 27 29 31 31 31 31 30 29 28 28 29 29 28 28 29 29 28 27 27 28 28 28 27 26 25 26 29 31 33 34 34 35 37 38 38 37 37 37 36 36 35
24 25 25 26 26 25 23 22 22 22 23 24 25 26 27 27 27 25 24 24 25 27 28 27 26 25 24 25 27 30 33 35 37 37 38 40 40 41 41 40 40 40 40
25 25 24 22 20 18 17 17 17 17 19 21 22 23 23 23 23 22 21 21 22 23 23 23 22 22 23 23 24 25 28 31 35 38 39 40 42 43 43 43 43 42 42
16 16 16 15 13 12 13 13 14 15 17 18 19 19 19 19 21 22 22 22 22 22 22 23 23 23 24 24 24 25 26 26 28 32 36 39 41 42 42 42 43 43 43
7 7 8 8 9 10 10 10 10 13 15 17 17 18 19 21 22 23 24 24 25 26 26 26 27 27 26 26 25 26 26 26 26 27 29 34 37 40 43 44 44 43 43
3 3 5 7 8 9 11 12 14 16 17 17 17 18 20 21 22 23 25 27 28 29 30 31 31 30 29 29 29 29 28 28 27 26 25 27 29 33 37 41 42 43 42
3 3 5 7 9 11 13 14 15 15 16 17 17 19 20 21 22 24 25 27 29 30 31 31 31 30 29 30 30 30 30 30 30 29 28 27 26 26 26 27 30 33 37
6 6 7 9 10 11 11 12 12 14 15 17 19 20 21 23 24 26 27 29 30 30 29 29 28 28 28 27 27 28 29 29 29 31 31 31 30 29 28 27 26 26 27
11 11 11 11 11 11 12 12 13 15 16 19 21 22 23 23 24 26 27 28 28 27 26 26 27 28 29 29 30 31 31 32 33 34 35 35 35 35 35 35 34 33 31
15 15 14 14 14 13 13 14 15 16 18 20 22 24 24 24 25 25 25 24 23 24 25 28 31 33 34 35 35 36 36 37 37 38 38 39 39 39 40 41 41 40 38
18 17 16 16 16 16 15 15 16 17 18 20 21 23 25 26 26 24 22 22 22 24 27 30 32 33 34 34 35 36 37 38 39 41 41 42 42 42 43 43 45 45 43
19 18 18 18 18 17 16 16 16 17 17 17 19 21 24 25 25 23 22 23 25 27 28 28 28 28 28 29 29 30 32 33 35 37 39 41 43 43 44 44 44 45 45
21 20 19 19 19 18 17 16 16 15 14 15 17 20 22 23 23 23 24 25 26 27 27 26 24 24 26 27 28 29 30 30 31 31 32 34 36 39 41 42 43 44 45
22 21 21 20 19 18 18 17 15 14 14 14 16 19 21 22 23 23 25 26 26 25 25 24 24 25 27 29 29 29 29 29 28 27 26 27 28 31 34 37 40 42 44
22 22 22 21 20 19 18 17 15 14 14 14 17 19 22 23 24 25 25 25 26 27 27 27 27 27 28 28 29 30 29 28 26 26 25 26 26 26 27 29 32 35 39
22 21 21 21 20 19 19 17 16 15 15 16 17 19 22 24 25 26 26 26 27 29 30 31 31 30 29 28 28 29 29 29 27 27 26 26 25 25 25 26 28 30 32
22 20 19 19 20 20 19 19 18 17 17 18 17 18 20 22 23 25 27 28 30 31 32 33 33 31 29 29 30 30 31 32 31 30 28 27 27 26 26 26 28 29 31
22 21 20 19 18 18 18 18 18 18 18 18 17 17 18 19 22 25 29 31 32 34 34 34 33 32 31 31 31 32 33 33 33 32 30 29 28 28 28 28 29 30 31
Wind_Direction
272 270 269 270 272 275 277 278 278 279 282 284 285 287 293 299 304 307 304 290 277 267 260 257 255 255 251 245 240 236 237 241 247 249 247 248 255 261 261 257 256 259 262
273 271 270 271 273 274 274 274 273 275 279 281 284 286 289 294 298 301 298 294 289 287 279 269 257 250 245 242 241 241 242 243 249 255 255 256 258 258 256 252 255 262 264
273 272 271 272 272 272 271 271 272 273 275 277 280 284 286 286 287 288 288 288 288 289 290 290 279 268 264 263 258 254 251 251 254 255 254 253 254 255 257 257 260 266 268
272 271 269 270 272 273 272 272 272 272 273 274 277 281 283 282 279 278 279 280 279 279 279 280 281 280 276 271 265 260 257 256 256 255 254 254 253 253 255 258 262 263 265
268 267 267 270 274 274 272 271 272 275 277 277 278 280 282 281 280 279 278 277 275 273 271 272 272 271 269 266 263 260 258 256 255 254 254 255 256 256 256 258 262 262 259
264 263 265 271 273 271 271 273 276 278 279 280 280 281 282 283 282 280 278 277 274 272 271 271 271 270 268 266 263 260 259 257 256 255 256 257 258 257 256 257 260 262 259
261 261 264 268 269 268 269 271 275 279 281 283 283 284 285 286 283 281 280 279 278 276 275 274 272 272 271 269 266 264 262 261 260 259 259 259 257 256 255 255 257 259 258
263 266 267 267 267 267 268 271 276 281 283 284 284 285 287 289 289 288 286 284 282 281 280 279 277 275 273 270 267 265 262 260 260 258 257 255 253 252 254 255 254 253 252
264 265 267 267 268 270 273 277 280 284 284 284 283 283 285 287 288 289 290 290 290 289 288 288 285 281 276 269 264 260 257 254 252 250 250 251 250 249 249 250 249 247 247
269 269 269 272 275 278 281 284 286 286 286 286 286 284 284 285 287 290 294 295 295 296 296 296 294 292 286 278 270 263 258 252 248 245 245 247 248 248 247 247 246 245 245
273 272 273 275 277 279 282 283 284 286 288 291 291 292 292 293 295 296 297 296 296 296 297 298 298 298 296 292 285 278 269 261 253 247 244 244 245 246 246 247 247 247 248
280 275 274 272 271 272 276 281 288 294 297 298 298 298 300 303 303 301 299 298 297 296 296 296 297 297 297 296 293 290 284 276 267 258 250 248 247 248 249 249 248 249 249
300 282 275 268 267 274 280 288 296 304 307 306 304 301 300 300 300 298 297 295 294 295 294 293 292 291 290 289 287 286 284 281 276 270 261 256 253 250 249 248 248 248 249
360 301 277 276 278 281 285 292 297 300 301 300 299 298 298 297 296 294 291 290 291 292 292 291 290 289 287 285 281 277 275 274 273 271 267 263 258 255 253 251 252 252 250
333 302 281 277 279 283 288 292 295 297 298 299 300 301 301 300 299 297 295 293 293 292 292 292 291 289 284 280 278 275 271 267 264 263 263 262 260 258 257 254 251 249 248
296 286 280 280 283 287 292 294 295 296 297 299 300 301 302 303 303 301 299 297 296 297 297 296 294 290 287 284 281 278 275 271 267 264 262 260 260 260 258 255 252 252 252
288 286 285 286 288 290 293 295 297 300 302 303 304 305 309 312 310 307 303 301 300 301 301 299 297 294 292 290 287 285 283 280 278 275 273 268 263 261 260 260 260 261 260
284 282 281 282 284 288 293 297 300 303 306 307 309 313 318 319 317 313 311 312 312 310 305 300 296 295 294 293 292 289 287 284 280 278 275 271 267 264 261 260 260 259 258
282 281 280 279 280 283 288 294 299 302 304 307 312 318 322 322 320 317 316 318 315 308 301 297 295 294 294 294 294 293 291 287 282 278 274 271 268 265 262 258 257 256 253
278 277 278 278 280 282 284 287 291 294 298 305 312 319 322 322 320 317 315 313 312 310 307 304 302 299 298 299 301 301 299 295 289 282 275 271 268 266 264 261 257 254 250
274 272 272 274 276 279 280 283 288 293 299 309 317 324 327 325 321 316 311 309 310 312 313 313 310 307 306 308 310 309 307 305 300 292 284 277 272 268 265 261 257 254 249
274 271 269 269 273 277 282 289 298 303 307 313 318 324 328 328 325 319 313 309 309 310 312 314 313 312 313 314 315 313 310 311 309 302 294 288 282 276 270 265 260 255 250
269 269 268 268 271 274 279 285 293 299 303 307 313 320 326 328 328 325 321 316 314 316 319 321 319 317 316 316 317 317 315 314 313 309 304 299 294 288 280 272 264 258 253
266 267 268 268 271 274 277 283 290 296 300 303 307 318 325 328 329 330 329 326 325 325 325 325 325 323 320 317 318 319 319 317 314 310 308 305 302 298 288 278 270 263 257
267 266 266 267 268 270 274 281 288 293 298 300 303 312 321 326 333 337 337 336 333 331 329 328 326 324 320 317 317 319 319 318 316 313 308 304 300 297 291 283 275 268 261
266 266 268 268 267 267 270 277 282 286 290 292 296 305 314 323 333 338 340 340 337 334 332 329 326 322 318 315 314 314 316 316 316 314 310 304 299 295 290 285 279 273 267
Height
5782 5783 5784 5784 5785 5784 5784 5782 5781 5781 5781 5780 5779 5778 5777 5777 5776 5774 5772 5771 5769 5768 5767 5766 5766 5765 5764 5764 5765 5766 5767 5768 5769 5771 5772 5774 5775 5775 5776 5776 5776 5777 5778
5773 5774 5774 5775 5775 5775 5775 5774 5773 5773 5773 5773 5772 5771 5771 5771 5770 5769 5767 5766 5764 5762 5760 5759 5758 5758 5758 5757 5758 5758 5759 5760 5762 5764 5765 5767 5769 5769 5769 5769 5770 5770 5771
5765 5766 5766 5766 5766 5766 5766 5765 5765 5765 5765 5765 5764 5764 5764 5764 5764 5763 5762 5760 5759 5757 5756 5754 5752 5751 5751 5751 5751 5752 5753 5754 5757 5759 5760 5761 5763 5763 5763 5763 5763 5764 5764
5756 5757 5757 5758 5758 5758 5758 5757 5757 5757 5757 5757 5757 5756 5756 5756 5756 5756 5755 5754 5753 5752 5751 5749 5748 5748 5747 5747 5747 5748 5749 5750 5751 5752 5753 5754 5756 5757 5757 5757 5757 5758 5758
5749 5749 5750 5750 5750 5750 5749 5749 5748 5748 5749 5749 5748 5748 5748 5747 5747 5747 5746 5746 5745 5745 5744 5743 5743 5743 5743 5743 5743 5743 5744 5744 5745 5745 5746 5747 5748 5749 5750 5751 5751 5752 5753
5741 5741 5742 5742 5742 5742 5741 5741 5740 5740 5740 5740 5739 5740 5740 5739 5738 5737 5737 5736 5736 5736 5735 5735 5736 5736 5736 5736 5736 5736 5737 5738 5738 5738 5738 5739 5740 5742 5743 5744 5744 5745 5746
5733 5733 5732 5732 5733 5733 5733 5733 5733 5732 5732 5731 5730 5730 5730 5730 5730 5729 5728 5727 5726 5726 5726 5726 5726 5726 5726 5726 5727 5728 5728 5729 5729 5730 5729 5730 5731 5733 5734 5736 5737 5739 5739
5724 5724 5724 5724 5724 5724 5725 5725 5725 5724 5723 5723 5722 5722 5721 5720 5720 5719 5718 5717 5716 5715 5715 5715 5715 5714 5714 5715 5716 5716 5717 5718 5719 5720 5720 5719 5721 5722 5724 5726 5728 5730 5732
5717 5716 5716 5716 5716 5715 5716 5716 5716 5716 5715 5715 5714 5714 5713 5711 5711 5710 5709 5708 5707 5706 5705 5704 5703 5703 5703 5703 5704 5704 5705 5706 5707 5708 5708 5708 5709 5711 5713 5715 5717 5719 5722
5709 5708 5707 5707 5707 5707 5708 5708 5709 5709 5708 5708 5707 5705 5704 5704 5703 5703 5702 5700 5699 5697 5696 5695 5694 5694 5694 5693 5693 5693 5693 5693 5695 5696 5696 5697 5698 5700 5702 5704 5706 5708 5709
5701 5700 5700 5701 5701 5701 5702 5703 5703 5702 5702 5701 5699 5697 5695 5695 5695 5695 5694 5693 5692 5690 5689 5687 5686 5685 5684 5683 5683 5682 5681 5681 5682 5683 5684 5686 5688 5689 5690 5692 5693 5696 5698
5694 5694 5694 5695 5696 5697 5697 5698 5698 5697 5696 5695 5693 5691 5690 5688 5687 5687 5686 5685 5684 5683 5682 5680 5679 5678 5676 5674 5673 5672 5671 5670 5670 5671 5672 5674 5676 5678 5679 5680 5682 5684 5686
5690 5690 5691 5692 5693 5693 5693 5694 5694 5693 5692 5691 5689 5687 5685 5684 5682 5681 5679 5678 5677 5676 5674 5673 5672 5670 5668 5667 5665 5664 5663 5662 5661 5660 5660 5661 5663 5664 5666 5667 5669 5671 5674
5688 5688 5689 5689 5690 5690 5690 5690 5690 5689 5688 5686 5684 5683 5681 5679 5677 5675 5673 5672 5670 5668 5666 5664 5663 5661 5660 5658 5657 5656 5655 5654 5653 5652 5652 5652 5652 5653 5654 5656 5657 5659 5661
5687 5687 5686 5687 5687 5687 5687 5686 5686 5684 5682 5681 5679 5677 5675 5673 5671 5669 5666 5664 5661 5659 5656 5654 5653 5651 5650 5648 5647 5646 5645 5645 5645 5644 5643 5643 5643 5644 5644 5645 5646 5647 5649
5685 5685 5684 5684 5683 5683 5682 5682 5681 5679 5677 5675 5673 5671 5669 5667 5664 5661 5658 5655 5652 5649 5647 5645 5643 5641 5639 5638 5637 5636 5635 5635 5634 5634 5633 5633 5633 5634 5635 5636 5637 5637 5638
5683 5682 5681 5680 5679 5679 5678 5677 5676 5674 5672 5669 5667 5665 5663 5661 5657 5654 5650 5647 5644 5641 5639 5637 5634 5632 5630 5629 5627 5626 5624 5623 5622 5622 5621 5621 5622 5622 5624 5625 5626 5627 5628
5679 5678 5677 5676 5675 5674 5673 5672 5670 5668 5666 5663 5661 5658 5656 5654 5650 5646 5642 5639 5637 5634 5632 5629 5626 5623 5621 5618 5616 5614 5612 5610 5609 5608 5607 5607 5608 5608 5610 5612 5614 5615 5617
5674 5673 5672 5671 5670 5669 5668 5667 5665 5663 5661 5658 5655 5652 5649 5646 5642 5639 5636 5634 5631 5629 5625 5622 5618 5614 5611 5608 5605 5602 5599 5597 5594 5593 5591 5590 5591 5592 5594 5596 5598 5600 5603
5668 5667 5667 5666 5665 5664 5663 5662 5660 5659 5657 5654 5651 5648 5644 5640 5636 5634 5631 5629 5625 5621 5617 5613 5609 5606 5603 5599 5596 5592 5588 5584 5581 5578 5576 5575 5575 5575 5577 5579 5582 5584 5587
5661 5661 5661 5660 5659 5658 5657 5656 5655 5653 5652 5649 5646 5643 5640 5636 5632 5629 5626 5623 5619 5615 5610 5606 5602 5598 5595 5591 5587 5583 5578 5574 5570 5566 5563 5561 5561 5561 5562 5563 5565 5568 5571
5654 5654 5654 5654 5653 5652 5651 5649 5648 5646 5645 5643 5641 5639 5635 5632 5628 5625 5621 5617 5613 5608 5604 5600 5596 5592 5588 5583 5579 5574 5570 5566 5561 5557 5554 5551 5550 5549 5548 5548 5549 5551 5554
5647 5647 5647 5647 5647 5646 5646 5644 5643 5641 5640 5639 5637 5634 5631 5627 5623 5620 5615 5611 5606 5602 5597 5594 5589 5585 5580 5576 5571 5567 5562 5559 5555 5550 5546 5543 5541 5539 5538 5537 5536 5537 5539
5639 5640 5640 5640 5640 5640 5639 5639 5638 5636 5635 5634 5632 5629 5626 5623 5619 5615 5610 5605 5600 5595 5591 5586 5581 5577 5572 5567 5564 5560 5556 5552 5548 5544 5540 5537 5533 5531 5529 5527 5526 5526 5527
5630 5632 5633 5634 5634 5634 5633 5633 5632 5631 5629 5628 5626 5624 5622 5619 5614 5610 5605 5600 5595 5590 5585 5580 5575 5570 5565 5560 5556 5552 5548 5544 5540 5537 5533 5530 5526 5523 5520 5518 5516 5515 5515
5623 5624 5626 5627 5628 5628 5628 5628 5626 5625 5624 5622 5621 5619 5617 5614 5609 5605 5600 5595 5590 5584 5580 5575 5569 5563 5558 5553 5549 5545 5541 5537 5532 5528 5524 5521 5518 5515 5512 5509 5507 5505 5504